Time,TemperatureF,DewpointF,PressureIn,WindDirection,WindDirectionDegrees,WindSpeedMPH,WindSpeedGustMPH,Humidity,HourlyPrecipIn,Conditions,Clouds,dailyrainin,SoftwareType,DateUTC
2013-12-12 00:00:00,31.3,18.2,30.42,West,269,4.0,4.0,58,0.00,,,0.00,Wunderground v.1.15,2013-12-12 05:00:00,
2013-12-12 00:05:00,31.0,18.3,30.42,SSW,204,3.0,4.0,59,0.00,,,0.00,Wunderground v.1.15,2013-12-12 05:05:00,
2013-12-12 00:10:00,30.9,18.6,30.42,SW,236,2.0,2.0,60,0.00,,,0.00,Wunderground v.1.15,2013-12-12 05:10:00,
2013-12-12 00:15:00,30.7,18.4,30.42,SSW,205,1.0,2.0,60,0.00,,,0.00,Wunderground v.1.15,2013-12-12 05:15:00,
2013-12-12 00:20:00,30.6,18.3,30.42,SW,226,2.0,2.0,60,0.00,,,0.00,Wunderground v.1.15,2013-12-12 05:20:00,
2013-12-12 00:25:00,30.4,18.9,30.42,SW,223,2.0,6.0,62,0.00,,,0.00,Wunderground v.1.15,2013-12-12 05:25:00,
2013-12-12 00:30:00,30.4,18.9,30.42,SW,228,4.0,7.0,62,0.00,,,0.00,Wunderground v.1.15,2013-12-12 05:30:00,
2013-12-12 00:35:00,30.4,18.9,30.42,SW,219,4.0,7.0,62,0.00,,,0.00,Wunderground v.1.15,2013-12-12 05:35:00,
2013-12-12 00:40:00,30.3,18.8,30.42,WSW,256,2.0,6.0,62,0.00,,,0.00,Wunderground v.1.15,2013-12-12 05:40:00,
2013-12-12 00:50:00,30.1,19.0,30.42,WSW,251,3.0,3.0,63,0.00,,,0.00,Wunderground v.1.15,2013-12-12 05:50:00,
2013-12-12 01:00:00,29.7,19.0,30.42,SSW,206,2.0,4.0,64,0.00,,,0.00,Wunderground v.1.15,2013-12-12 06:00:00,
2013-12-12 01:05:00,29.5,18.8,30.42,SSW,209,3.0,4.0,64,0.00,,,0.00,Wunderground v.1.15,2013-12-12 06:05:00,
2013-12-12 01:10:00,29.5,19.2,30.42,SW,215,3.0,3.0,65,0.00,,,0.00,Wunderground v.1.15,2013-12-12 06:10:00,
2013-12-12 01:20:00,29.5,19.2,30.42,SW,216,2.0,2.0,65,0.00,,,0.00,Wunderground v.1.15,2013-12-12 06:20:00,
2013-12-12 01:30:00,29.4,19.1,30.42,SSW,213,1.0,4.0,65,0.00,,,0.00,Wunderground v.1.15,2013-12-12 06:30:00,
2013-12-12 01:40:00,29.1,19.5,30.42,SW,236,1.0,7.0,67,0.00,,,0.00,Wunderground v.1.15,2013-12-12 06:40:00,
2013-12-12 01:45:00,29.1,19.5,30.42,SW,221,3.0,7.0,67,0.00,,,0.00,Wunderground v.1.15,2013-12-12 06:45:00,
2013-12-12 01:55:00,29.0,19.8,30.42,West,275,3.0,4.0,68,0.00,,,0.00,Wunderground v.1.15,2013-12-12 06:55:00,
2013-12-12 02:05:00,28.7,19.5,30.42,WSW,250,1.0,2.0,68,0.00,,,0.00,Wunderground v.1.15,2013-12-12 07:05:00,
2013-12-12 02:10:00,28.4,19.2,30.43,WSW,250,1.0,1.0,68,0.00,,,0.00,Wunderground v.1.15,2013-12-12 07:10:00,
2013-12-12 02:20:00,28.2,19.3,30.42,West,271,2.0,6.0,69,0.00,,,0.00,Wunderground v.1.15,2013-12-12 07:20:00,
2013-12-12 02:30:00,27.8,19.3,30.43,West,269,1.0,1.0,70,0.00,,,0.00,Wunderground v.1.15,2013-12-12 07:30:00,
2013-12-12 02:40:00,27.6,19.4,30.43,SW,236,1.0,1.0,71,0.00,,,0.00,Wunderground v.1.15,2013-12-12 07:40:00,
2013-12-12 02:50:00,27.5,19.0,30.43,WSW,240,1.0,1.0,70,0.00,,,0.00,Wunderground v.1.15,2013-12-12 07:50:00,
2013-12-12 03:00:00,27.2,18.7,30.43,WSW,256,0.0,0.0,70,0.00,,,0.00,Wunderground v.1.15,2013-12-12 08:00:00,
2013-12-12 03:05:00,27.0,18.5,30.43,WSW,256,0.0,1.0,70,0.00,,,0.00,Wunderground v.1.15,2013-12-12 08:05:00,
2013-12-12 03:10:00,27.0,18.2,30.43,WSW,248,1.0,1.0,69,0.00,,,0.00,Wunderground v.1.15,2013-12-12 08:10:00,
2013-12-12 03:20:00,27.0,17.8,30.43,West,277,1.0,1.0,68,0.00,,,0.00,Wunderground v.1.15,2013-12-12 08:20:00,
2013-12-12 03:30:00,26.9,18.1,30.43,South,180,2.0,2.0,69,0.00,,,0.00,Wunderground v.1.15,2013-12-12 08:30:00,
2013-12-12 03:35:00,26.6,17.8,30.43,SSW,194,1.0,2.0,69,0.00,,,0.00,Wunderground v.1.15,2013-12-12 08:35:00,
2013-12-12 03:40:00,26.4,17.6,30.42,SSW,206,1.0,4.0,69,0.00,,,0.00,Wunderground v.1.15,2013-12-12 08:40:00,
2013-12-12 03:45:00,26.3,17.5,30.42,SSW,203,2.0,11.0,69,0.00,,,0.00,Wunderground v.1.15,2013-12-12 08:45:00,
2013-12-12 03:55:00,26.6,17.8,30.42,SW,223,4.0,4.0,69,0.00,,,0.00,Wunderground v.1.15,2013-12-12 08:55:00,
2013-12-12 04:00:00,26.6,17.8,30.42,SSW,213,3.0,3.0,69,0.00,,,0.00,Wunderground v.1.15,2013-12-12 09:00:00,
2013-12-12 04:10:00,26.4,17.6,30.42,SW,214,3.0,3.0,69,0.00,,,0.00,Wunderground v.1.15,2013-12-12 09:10:00,
2013-12-12 04:15:00,26.3,17.2,30.42,West,261,2.0,3.0,68,0.00,,,0.00,Wunderground v.1.15,2013-12-12 09:15:00,
2013-12-12 04:25:00,26.1,17.0,30.42,SW,230,3.0,7.0,68,0.00,,,0.00,Wunderground v.1.15,2013-12-12 09:25:00,
2013-12-12 04:30:00,26.3,17.2,30.43,SSW,209,4.0,4.0,68,0.00,,,0.00,Wunderground v.1.15,2013-12-12 09:30:00,
2013-12-12 04:40:00,26.1,17.0,30.43,SSW,207,3.0,5.0,68,0.00,,,0.00,Wunderground v.1.15,2013-12-12 09:40:00,
2013-12-12 04:50:00,25.7,17.3,30.42,SSW,201,3.0,3.0,70,0.00,,,0.00,Wunderground v.1.15,2013-12-12 09:50:00,
2013-12-12 05:00:00,25.6,17.5,30.42,SSW,209,2.0,2.0,71,0.00,,,0.00,Wunderground v.1.15,2013-12-12 10:00:00,
2013-12-12 05:05:00,25.4,17.3,30.42,SSW,202,1.0,4.0,71,0.00,,,0.00,Wunderground v.1.15,2013-12-12 10:05:00,
2013-12-12 05:10:00,25.7,17.3,30.43,SW,228,2.0,10.0,70,0.00,,,0.00,Wunderground v.1.15,2013-12-12 10:10:00,
2013-12-12 05:20:00,25.8,17.7,30.43,SSW,211,2.0,3.0,71,0.00,,,0.00,Wunderground v.1.15,2013-12-12 10:20:00,
2013-12-12 05:25:00,25.7,17.6,30.43,SSW,196,1.0,3.0,71,0.00,,,0.00,Wunderground v.1.15,2013-12-12 10:25:00,
2013-12-12 05:30:00,25.8,17.7,30.43,SW,219,1.0,1.0,71,0.00,,,0.00,Wunderground v.1.15,2013-12-12 10:30:00,
2013-12-12 05:40:00,26.0,17.9,30.44,SW,220,1.0,1.0,71,0.00,,,0.00,Wunderground v.1.15,2013-12-12 10:40:00,
2013-12-12 05:50:00,26.0,17.9,30.44,SW,225,2.0,2.0,71,0.00,,,0.00,Wunderground v.1.15,2013-12-12 10:50:00,
2013-12-12 06:00:00,26.0,17.6,30.44,SW,222,1.0,1.0,70,0.00,,,0.00,Wunderground v.1.15,2013-12-12 11:00:00,
2013-12-12 06:10:00,25.7,16.9,30.44,WSW,255,1.0,5.0,69,0.00,,,0.00,Wunderground v.1.15,2013-12-12 11:10:00,
2013-12-12 06:15:00,25.6,16.8,30.44,SSW,197,3.0,7.0,69,0.00,,,0.00,Wunderground v.1.15,2013-12-12 11:15:00,
2013-12-12 06:20:00,25.4,16.6,30.45,SW,215,3.0,3.0,69,0.00,,,0.00,Wunderground v.1.15,2013-12-12 11:20:00,
2013-12-12 06:30:00,25.3,15.9,30.45,WSW,250,4.0,4.0,67,0.00,,,0.00,Wunderground v.1.15,2013-12-12 11:30:00,
2013-12-12 06:40:00,25.1,15.7,30.46,SW,225,3.0,3.0,67,0.00,,,0.00,Wunderground v.1.15,2013-12-12 11:40:00,
2013-12-12 06:50:00,25.0,15.6,30.46,West,263,4.0,4.0,67,0.00,,,0.00,Wunderground v.1.15,2013-12-12 11:50:00,
2013-12-12 07:00:00,24.7,15.3,30.47,SW,228,3.0,6.0,67,0.00,,,0.00,Wunderground v.1.15,2013-12-12 12:00:00,
2013-12-12 07:05:00,24.7,15.3,30.47,West,276,3.0,6.0,67,0.00,,,0.00,Wunderground v.1.15,2013-12-12 12:05:00,
2013-12-12 07:10:00,24.4,15.0,30.47,SSW,194,2.0,2.0,67,0.00,,,0.00,Wunderground v.1.15,2013-12-12 12:10:00,
2013-12-12 07:20:00,24.2,14.8,30.47,SSW,209,1.0,1.0,67,0.00,,,0.00,Wunderground v.1.15,2013-12-12 12:20:00,
2013-12-12 07:25:00,24.1,14.7,30.47,SW,232,1.0,1.0,67,0.00,,,0.00,Wunderground v.1.15,2013-12-12 12:25:00,
2013-12-12 07:35:00,23.9,14.5,30.48,SW,214,3.0,5.0,67,0.00,,,0.00,Wunderground v.1.15,2013-12-12 12:35:00,
2013-12-12 07:40:00,23.9,14.5,30.48,SW,218,4.0,4.0,67,0.00,,,0.00,Wunderground v.1.15,2013-12-12 12:40:00,
2013-12-12 07:50:00,23.5,14.5,30.48,SW,221,4.0,4.0,68,0.00,,,0.00,Wunderground v.1.15,2013-12-12 12:50:00,
2013-12-12 08:00:00,23.5,14.5,30.48,SSW,213,3.0,3.0,68,0.00,,,0.00,Wunderground v.1.15,2013-12-12 13:00:00,
2013-12-12 08:10:00,23.6,14.6,30.48,SW,215,3.0,3.0,68,0.00,,,0.00,Wunderground v.1.15,2013-12-12 13:10:00,
2013-12-12 08:20:00,23.6,14.9,30.48,SSW,198,3.0,3.0,69,0.00,,,0.00,Wunderground v.1.15,2013-12-12 13:20:00,
2013-12-12 08:30:00,23.9,15.2,30.49,SSW,209,1.0,2.0,69,0.00,,,0.00,Wunderground v.1.15,2013-12-12 13:30:00,
2013-12-12 08:40:00,24.4,15.3,30.49,SW,226,1.0,3.0,68,0.00,,,0.00,Wunderground v.1.15,2013-12-12 13:40:00,
2013-12-12 08:50:00,24.5,15.4,30.49,SSW,213,2.0,2.0,68,0.00,,,0.00,Wunderground v.1.15,2013-12-12 13:50:00,
2013-12-12 09:00:00,24.4,15.3,30.49,SSW,204,1.0,1.0,68,0.00,,,0.00,Wunderground v.1.15,2013-12-12 14:00:00,
2013-12-12 09:10:00,24.5,15.8,30.49,SSW,200,0.0,0.0,69,0.00,,,0.00,Wunderground v.1.15,2013-12-12 14:10:00,
2013-12-12 09:15:00,24.5,15.4,30.49,SW,221,1.0,1.0,68,0.00,,,0.00,Wunderground v.1.15,2013-12-12 14:15:00,
2013-12-12 09:20:00,24.5,15.4,30.50,WSW,240,1.0,3.0,68,0.00,,,0.00,Wunderground v.1.15,2013-12-12 14:20:00,
2013-12-12 09:30:00,25.4,16.3,30.50,SW,214,2.0,7.0,68,0.00,,,0.00,Wunderground v.1.15,2013-12-12 14:30:00,
2013-12-12 09:40:00,25.7,16.3,30.49,SW,225,2.0,2.0,67,0.00,,,0.00,Wunderground v.1.15,2013-12-12 14:40:00,
2013-12-12 09:50:00,26.0,15.8,30.50,WSW,254,2.0,2.0,65,0.00,,,0.00,Wunderground v.1.15,2013-12-12 14:50:00,
2013-12-12 10:00:00,26.0,15.1,30.50,South,180,4.0,9.0,63,0.00,,,0.00,Wunderground v.1.15,2013-12-12 15:00:00,
2013-12-12 10:10:00,26.1,15.9,30.50,SSW,207,4.0,4.0,65,0.00,,,0.00,Wunderground v.1.15,2013-12-12 15:10:00,
2013-12-12 10:15:00,26.6,15.7,30.50,South,188,4.0,4.0,63,0.00,,,0.00,Wunderground v.1.15,2013-12-12 15:15:00,
2013-12-12 10:25:00,26.7,15.8,30.50,SW,231,5.0,11.0,63,0.00,,,0.00,Wunderground v.1.15,2013-12-12 15:25:00,
2013-12-12 10:35:00,27.2,15.9,30.49,SW,216,3.0,4.0,62,0.00,,,0.00,Wunderground v.1.15,2013-12-12 15:35:00,
2013-12-12 10:40:00,27.5,16.5,30.50,SW,221,4.0,7.0,63,0.00,,,0.00,Wunderground v.1.15,2013-12-12 15:40:00,
2013-12-12 10:50:00,27.8,15.7,30.50,SSW,202,7.0,7.0,60,0.00,,,0.00,Wunderground v.1.15,2013-12-12 15:50:00,
2013-12-12 11:00:00,27.8,16.1,30.49,SSW,208,6.0,6.0,61,0.00,,,0.00,Wunderground v.1.15,2013-12-12 16:00:00,
2013-12-12 11:10:00,27.9,15.8,30.49,South,182,6.0,6.0,60,0.00,,,0.00,Wunderground v.1.15,2013-12-12 16:10:00,
2013-12-12 11:20:00,28.1,15.6,30.49,SW,229,5.0,5.0,59,0.00,,,0.00,Wunderground v.1.15,2013-12-12 16:20:00,
2013-12-12 11:30:00,28.4,15.9,30.48,SSW,209,5.0,5.0,59,0.00,,,0.00,Wunderground v.1.15,2013-12-12 16:30:00,
2013-12-12 11:35:00,28.8,16.3,30.48,SW,215,5.0,6.0,59,0.00,,,0.00,Wunderground v.1.15,2013-12-12 16:35:00,
2013-12-12 11:45:00,28.8,15.5,30.48,WSW,241,5.0,5.0,57,0.00,,,0.00,Wunderground v.1.15,2013-12-12 16:45:00,
2013-12-12 11:50:00,28.8,15.1,30.47,West,261,6.0,8.0,56,0.00,,,0.00,Wunderground v.1.15,2013-12-12 16:50:00,
2013-12-12 11:55:00,29.3,15.9,30.47,SW,225,4.0,8.0,57,0.00,,,0.00,Wunderground v.1.15,2013-12-12 16:55:00,
2013-12-12 12:00:00,29.4,17.2,30.47,WSW,244,4.0,4.0,60,0.00,,,0.00,Wunderground v.1.15,2013-12-12 17:00:00,
2013-12-12 12:10:00,29.4,15.6,30.46,SSW,202,3.0,3.0,56,0.00,,,0.00,Wunderground v.1.15,2013-12-12 17:10:00,
2013-12-12 12:20:00,30.1,15.4,30.46,SW,215,5.0,5.0,54,0.00,,,0.00,Wunderground v.1.15,2013-12-12 17:20:00,
2013-12-12 12:30:00,30.0,14.9,30.46,West,277,5.0,5.0,53,0.00,,,0.00,Wunderground v.1.15,2013-12-12 17:30:00,
2013-12-12 12:40:00,30.0,14.9,30.46,SW,231,4.0,4.0,53,0.00,,,0.00,Wunderground v.1.15,2013-12-12 17:40:00,
2013-12-12 12:50:00,31.0,15.8,30.45,South,190,4.0,10.0,53,0.00,,,0.00,Wunderground v.1.15,2013-12-12 17:50:00,
2013-12-12 12:55:00,31.5,15.9,30.45,SSW,209,6.0,10.0,52,0.00,,,0.00,Wunderground v.1.15,2013-12-12 17:55:00,
2013-12-12 13:00:00,31.9,16.2,30.45,SSW,212,6.0,6.0,52,0.00,,,0.00,Wunderground v.1.15,2013-12-12 18:00:00,
2013-12-12 13:05:00,32.2,17.0,30.45,SW,229,6.0,6.0,53,0.00,,,0.00,Wunderground v.1.15,2013-12-12 18:05:00,
2013-12-12 13:10:00,32.4,15.8,30.44,South,186,6.0,8.0,50,0.00,,,0.00,Wunderground v.1.15,2013-12-12 18:10:00,
2013-12-12 13:15:00,32.4,15.8,30.44,SW,229,6.0,8.0,50,0.00,,,0.00,Wunderground v.1.15,2013-12-12 18:15:00,
2013-12-12 13:20:00,32.2,15.2,30.44,South,186,6.0,6.0,49,0.00,,,0.00,Wunderground v.1.15,2013-12-12 18:20:00,
2013-12-12 13:30:00,32.5,14.5,30.44,South,184,6.0,8.0,47,0.00,,,0.00,Wunderground v.1.15,2013-12-12 18:30:00,
2013-12-12 13:40:00,32.7,12.6,30.44,SSE,165,7.0,13.0,43,0.00,,,0.00,Wunderground v.1.15,2013-12-12 18:40:00,
2013-12-12 13:50:00,32.7,12.6,30.43,SSW,194,8.0,8.0,43,0.00,,,0.00,Wunderground v.1.15,2013-12-12 18:50:00,
2013-12-12 14:00:00,33.2,12.0,30.43,South,178,7.0,8.0,41,0.00,,,0.00,Wunderground v.1.15,2013-12-12 19:00:00,
2013-12-12 14:05:00,33.2,11.5,30.44,South,171,8.0,8.0,40,0.00,,,0.00,Wunderground v.1.15,2013-12-12 19:05:00,
2013-12-12 14:15:00,33.4,11.1,30.43,SW,216,7.0,7.0,39,0.00,,,0.00,Wunderground v.1.15,2013-12-12 19:15:00,
2013-12-12 14:20:00,33.4,11.1,30.44,SSW,208,7.0,7.0,39,0.00,,,0.00,Wunderground v.1.15,2013-12-12 19:20:00,
2013-12-12 14:30:00,33.5,9.4,30.44,SW,234,7.0,10.0,36,0.00,,,0.00,Wunderground v.1.15,2013-12-12 19:30:00,
2013-12-12 14:40:00,33.5,8.7,30.44,South,175,8.0,8.0,35,0.00,,,0.00,Wunderground v.1.15,2013-12-12 19:40:00,
2013-12-12 14:45:00,34.0,9.8,30.44,SW,222,7.0,8.0,36,0.00,,,0.00,Wunderground v.1.15,2013-12-12 19:45:00,
2013-12-12 14:55:00,34.0,8.5,30.44,South,180,7.0,10.0,34,0.00,,,0.00,Wunderground v.1.15,2013-12-12 19:55:00,
2013-12-12 15:05:00,33.8,9.0,30.44,SSW,203,8.0,8.0,35,0.00,,,0.00,Wunderground v.1.15,2013-12-12 20:05:00,
2013-12-12 15:15:00,33.8,8.4,30.44,SW,232,7.0,9.0,34,0.00,,,0.00,Wunderground v.1.15,2013-12-12 20:15:00,
2013-12-12 15:20:00,34.0,9.8,30.44,South,187,6.0,6.0,36,0.00,,,0.00,Wunderground v.1.15,2013-12-12 20:20:00,
2013-12-12 15:30:00,33.8,12.0,30.44,South,175,8.0,9.0,40,0.00,,,0.00,Wunderground v.1.15,2013-12-12 20:30:00,
2013-12-12 15:40:00,33.8,12.0,30.44,SSW,202,8.0,8.0,40,0.00,,,0.00,Wunderground v.1.15,2013-12-12 20:40:00,
2013-12-12 15:50:00,33.8,9.0,30.45,SSW,200,6.0,6.0,35,0.00,,,0.00,Wunderground v.1.15,2013-12-12 20:50:00,
2013-12-12 16:00:00,33.7,8.9,30.45,South,190,7.0,7.0,35,0.00,,,0.00,Wunderground v.1.15,2013-12-12 21:00:00,
2013-12-12 16:05:00,33.7,8.9,30.44,South,190,6.0,9.0,35,0.00,,,0.00,Wunderground v.1.15,2013-12-12 21:05:00,
2013-12-12 16:15:00,33.4,12.7,30.45,SSW,207,6.0,7.0,42,0.00,,,0.00,Wunderground v.1.15,2013-12-12 21:15:00,
2013-12-12 16:20:00,33.1,13.0,30.45,South,180,6.0,6.0,43,0.00,,,0.00,Wunderground v.1.15,2013-12-12 21:20:00,
2013-12-12 16:30:00,32.7,12.6,30.45,South,185,6.0,7.0,43,0.00,,,0.00,Wunderground v.1.15,2013-12-12 21:30:00,
2013-12-12 16:40:00,32.4,13.9,30.45,SSW,194,6.0,7.0,46,0.00,,,0.00,Wunderground v.1.15,2013-12-12 21:40:00,
2013-12-12 16:45:00,31.9,14.9,30.44,SSW,192,4.0,7.0,49,0.00,,,0.00,Wunderground v.1.15,2013-12-12 21:45:00,
2013-12-12 16:50:00,31.3,15.2,30.45,South,184,3.0,3.0,51,0.00,,,0.00,Wunderground v.1.15,2013-12-12 21:50:00,
2013-12-12 16:55:00,30.7,14.7,30.44,South,184,2.0,3.0,51,0.00,,,0.00,Wunderground v.1.15,2013-12-12 21:55:00,
2013-12-12 17:00:00,30.4,14.9,30.45,South,177,2.0,2.0,52,0.00,,,0.00,Wunderground v.1.15,2013-12-12 22:00:00,
2013-12-12 17:05:00,30.0,14.9,30.45,South,175,1.0,2.0,53,0.00,,,0.00,Wunderground v.1.15,2013-12-12 22:05:00,
2013-12-12 17:10:00,29.7,15.1,30.44,South,175,1.0,1.0,54,0.00,,,0.00,Wunderground v.1.15,2013-12-12 22:10:00,
2013-12-12 17:15:00,29.3,14.7,30.44,South,175,0.0,1.0,54,0.00,,,0.00,Wunderground v.1.15,2013-12-12 22:15:00,
2013-12-12 17:20:00,29.0,14.8,30.44,South,175,0.0,0.0,55,0.00,,,0.00,Wunderground v.1.15,2013-12-12 22:20:00,
2013-12-12 17:25:00,28.7,15.0,30.44,South,175,0.0,0.0,56,0.00,,,0.00,Wunderground v.1.15,2013-12-12 22:25:00,
2013-12-12 17:30:00,28.2,14.9,30.44,South,175,0.0,0.0,57,0.00,,,0.00,Wunderground v.1.15,2013-12-12 22:30:00,
2013-12-12 17:35:00,27.9,15.0,30.44,South,175,0.0,0.0,58,0.00,,,0.00,Wunderground v.1.15,2013-12-12 22:35:00,
2013-12-12 17:45:00,27.0,14.9,30.44,South,175,0.0,0.0,60,0.00,,,0.00,Wunderground v.1.15,2013-12-12 22:45:00,
2013-12-12 17:50:00,26.7,14.7,30.45,South,175,0.0,0.0,60,0.00,,,0.00,Wunderground v.1.15,2013-12-12 22:50:00,
2013-12-12 18:00:00,26.1,14.5,30.45,South,175,0.0,0.0,61,0.00,,,0.00,Wunderground v.1.15,2013-12-12 23:00:00,
2013-12-12 18:05:00,26.0,14.8,30.45,South,175,0.0,0.0,62,0.00,,,0.00,Wunderground v.1.15,2013-12-12 23:05:00,
2013-12-12 18:10:00,25.8,14.2,30.45,South,175,0.0,0.0,61,0.00,,,0.00,Wunderground v.1.15,2013-12-12 23:10:00,
2013-12-12 18:15:00,26.0,14.4,30.45,South,175,0.0,0.0,61,0.00,,,0.00,Wunderground v.1.15,2013-12-12 23:15:00,
2013-12-12 18:20:00,26.1,14.1,30.45,South,175,0.0,0.0,60,0.00,,,0.00,Wunderground v.1.15,2013-12-12 23:20:00,
2013-12-12 18:30:00,26.0,14.4,30.45,South,175,0.0,0.0,61,0.00,,,0.00,Wunderground v.1.15,2013-12-12 23:30:00,
2013-12-12 18:40:00,25.1,13.9,30.44,South,175,0.0,0.0,62,0.00,,,0.00,Wunderground v.1.15,2013-12-12 23:40:00,
2013-12-12 18:50:00,24.5,14.4,30.44,South,175,0.0,0.0,65,0.00,,,0.00,Wunderground v.1.15,2013-12-12 23:50:00,
2013-12-12 19:00:00,23.9,13.8,30.45,South,175,0.0,0.0,65,0.00,,,0.00,Wunderground v.1.15,2013-12-13 00:00:00,
2013-12-12 19:10:00,23.9,13.8,30.45,South,175,0.0,0.0,65,0.00,,,0.00,Wunderground v.1.15,2013-12-13 00:10:00,
2013-12-12 19:20:00,23.6,13.9,30.45,South,175,0.0,0.0,66,0.00,,,0.00,Wunderground v.1.15,2013-12-13 00:20:00,
2013-12-12 19:25:00,23.6,13.9,30.45,South,175,0.0,0.0,66,0.00,,,0.00,Wunderground v.1.15,2013-12-13 00:25:00,
2013-12-12 19:30:00,23.6,13.9,30.45,South,175,0.0,0.0,66,0.00,,,0.00,Wunderground v.1.15,2013-12-13 00:30:00,
2013-12-12 19:40:00,23.5,13.8,30.45,South,175,0.0,0.0,66,0.00,,,0.00,Wunderground v.1.15,2013-12-13 00:40:00,
2013-12-12 19:45:00,23.0,14.3,30.45,South,175,0.0,0.0,69,0.00,,,0.00,Wunderground v.1.15,2013-12-13 00:45:00,
2013-12-12 19:50:00,22.7,14.4,30.45,South,175,0.0,0.0,70,0.00,,,0.00,Wunderground v.1.15,2013-12-13 00:50:00,
2013-12-12 20:00:00,22.1,13.5,30.45,South,175,0.0,0.0,69,0.00,,,0.00,Wunderground v.1.15,2013-12-13 01:00:00,
2013-12-12 20:05:00,21.9,13.3,30.45,South,175,0.0,0.0,69,0.00,,,0.00,Wunderground v.1.15,2013-12-13 01:05:00,
2013-12-12 20:15:00,21.8,13.2,30.45,South,175,0.0,0.0,69,0.00,,,0.00,Wunderground v.1.15,2013-12-13 01:15:00,
2013-12-12 20:20:00,21.6,13.3,30.45,South,175,0.0,0.0,70,0.00,,,0.00,Wunderground v.1.15,2013-12-13 01:20:00,
2013-12-12 20:30:00,21.3,13.4,30.45,South,175,0.0,0.0,71,0.00,,,0.00,Wunderground v.1.15,2013-12-13 01:30:00,
2013-12-12 20:40:00,21.0,13.1,30.45,South,175,0.0,0.0,71,0.00,,,0.00,Wunderground v.1.15,2013-12-13 01:40:00,
2013-12-12 20:50:00,20.8,13.2,30.44,South,175,0.0,0.0,72,0.00,,,0.00,Wunderground v.1.15,2013-12-13 01:50:00,
2013-12-12 20:55:00,20.6,13.3,30.44,South,175,0.0,0.0,73,0.00,,,0.00,Wunderground v.1.15,2013-12-13 01:55:00,
2013-12-12 21:00:00,20.5,13.2,30.44,South,175,0.0,0.0,73,0.00,,,0.00,Wunderground v.1.15,2013-12-13 02:00:00,
2013-12-12 21:05:00,20.5,13.2,30.44,South,175,0.0,0.0,73,0.00,,,0.00,Wunderground v.1.15,2013-12-13 02:05:00,
2013-12-12 21:10:00,20.3,13.0,30.44,South,175,0.0,0.0,73,0.00,,,0.00,Wunderground v.1.15,2013-12-13 02:10:00,
2013-12-12 21:20:00,20.3,13.0,30.44,South,175,0.0,0.0,73,0.00,,,0.00,Wunderground v.1.15,2013-12-13 02:20:00,
2013-12-12 21:25:00,20.3,13.0,30.44,South,175,0.0,0.0,73,0.00,,,0.00,Wunderground v.1.15,2013-12-13 02:25:00,
2013-12-12 21:30:00,20.3,13.0,30.43,South,175,0.0,0.0,73,0.00,,,0.00,Wunderground v.1.15,2013-12-13 02:30:00,
2013-12-12 21:35:00,20.3,13.0,30.44,South,175,0.0,0.0,73,0.00,,,0.00,Wunderground v.1.15,2013-12-13 02:35:00,
2013-12-12 21:40:00,20.5,13.2,30.43,South,175,0.0,0.0,73,0.00,,,0.00,Wunderground v.1.15,2013-12-13 02:40:00,
2013-12-12 21:45:00,20.5,13.2,30.43,South,175,0.0,0.0,73,0.00,,,0.00,Wunderground v.1.15,2013-12-13 02:45:00,
2013-12-12 21:55:00,20.6,13.6,30.43,South,175,0.0,0.0,74,0.00,,,0.00,Wunderground v.1.15,2013-12-13 02:55:00,
2013-12-12 22:00:00,20.6,13.3,30.43,South,175,0.0,0.0,73,0.00,,,0.00,Wunderground v.1.15,2013-12-13 03:00:00,
2013-12-12 22:10:00,21.1,13.8,30.43,South,175,0.0,0.0,73,0.00,,,0.00,Wunderground v.1.15,2013-12-13 03:10:00,
2013-12-12 22:15:00,21.3,14.0,30.43,South,175,0.0,0.0,73,0.00,,,0.00,Wunderground v.1.15,2013-12-13 03:15:00,
2013-12-12 22:25:00,21.3,14.0,30.43,South,175,0.0,2.0,73,0.00,,,0.00,Wunderground v.1.15,2013-12-13 03:25:00,
2013-12-12 22:35:00,21.3,14.0,30.44,South,175,0.0,0.0,73,0.00,,,0.00,Wunderground v.1.15,2013-12-13 03:35:00,
2013-12-12 22:40:00,21.3,14.0,30.43,South,175,0.0,0.0,73,0.00,,,0.00,Wunderground v.1.15,2013-12-13 03:40:00,
2013-12-12 22:45:00,21.3,14.0,30.43,South,175,0.0,0.0,73,0.00,,,0.00,Wunderground v.1.15,2013-12-13 03:45:00,
2013-12-12 22:55:00,21.6,14.0,30.43,South,175,0.0,0.0,72,0.00,,,0.00,Wunderground v.1.15,2013-12-13 03:55:00,
2013-12-12 23:00:00,21.8,14.2,30.43,South,175,0.0,0.0,72,0.00,,,0.00,Wunderground v.1.15,2013-12-13 04:00:00,
2013-12-12 23:05:00,21.6,14.0,30.43,South,175,0.0,0.0,72,0.00,,,0.00,Wunderground v.1.15,2013-12-13 04:05:00,
2013-12-12 23:10:00,21.4,13.8,30.43,South,175,0.0,0.0,72,0.00,,,0.00,Wunderground v.1.15,2013-12-13 04:10:00,
2013-12-12 23:20:00,21.0,13.7,30.43,South,175,0.0,0.0,73,0.00,,,0.00,Wunderground v.1.15,2013-12-13 04:20:00,
2013-12-12 23:30:00,20.5,13.5,30.43,South,175,0.0,0.0,74,0.00,,,0.00,Wunderground v.1.15,2013-12-13 04:30:00,
2013-12-12 23:35:00,20.3,13.3,30.44,South,175,0.0,0.0,74,0.00,,,0.00,Wunderground v.1.15,2013-12-13 04:35:00,
2013-12-12 23:40:00,20.0,13.0,30.44,South,175,0.0,0.0,74,0.00,,,0.00,Wunderground v.1.15,2013-12-13 04:40:00,
2013-12-12 23:45:00,19.9,13.3,30.44,South,175,0.0,0.0,75,0.00,,,0.00,Wunderground v.1.15,2013-12-13 04:45:00,
2013-12-12 23:55:00,19.5,12.9,30.44,South,175,0.0,0.0,75,0.00,,,0.00,Wunderground v.1.15,2013-12-13 04:55:00,